Tracking 19636 objects as of 24-May-2019
HD Live streaming from Space Station
objects crossing your sky now

DM-F3

Track DM-F3 now!
10-day predictions
DM-F3 is classified as:


NORAD ID: 26476
Int'l Code: 2000-048A
Perigee: 127.7 km
Apogee: 12,120.2 km
Inclination: 27.4 °
Period: 231.7 minutes
Semi major axis: 12494 km
RCS: 3.4121 m2 (large)
Launch date: August 23, 2000
Source: United States (US)
Launch site: AIR FORCE EASTERN TEST RANGE (AFETR)
aabbcc
Your satellite tracking list
Your tracking list is empty




NASA's NSSDC Master Catalog

Two Line Element Set (TLE):
1 26476U 00048A   19144.13032872  .00289984  23201-6  86660-4 0  9996
2 26476  27.3596  69.5288 4798908  12.2531 356.1907  6.21585872303692
Source of the keplerian elements: AFSPC